Regional Weather Roundup
Issued by NWS

Home | Current Version | Previous Version | Graphics & Text | Print | Product List | Glossary On
Versions: 1 2 3 4 5 6 7 8 9 10 11 12 13 14 15 16 17 18 19 20 21 22 23 24 25 26 27 28 29 30 31 32 33 34 35 36 37 38 39 40 41 42 43 44 45 46 47 48 49 50
000
ASUS43 KLMK 201010
RWRKY
KENTUCKY REGIONAL WEATHER ROUNDUP
NATIONAL WEATHER SERVICE LOUISVILLE KY
600 AM EDT MON OCT 20 2014

NOTE "FAIR" INDICATES FEW OR NO CLOUDS BELOW 12,000 FEET
WITH NO SIGNIFICANT WEATHER AND/OR OBSTRUCTIONS TO VISIBILITY.

KYZ001>023-026-027-061>063-070>075-201100-
WESTERN AND SOUTH CENTRAL KENTUCKY

CITY           SKY/WX    TMP DP  RH WIND       PRES   REMARKS
PADUCAH        PTCLDY    49  45  86 SW5       30.04F
HENDERSON      MOCLDY    50  45  81 SW8       30.03S
OWENSBORO      PTCLDY    47  45  93 CALM      30.04F
HOPKINSVILLE   MOCLDY    47  47  99 SW3       30.07R
BOWLING GREEN  MOCLDY    44  41  89 CALM      30.08R
GLASGOW        PTCLDY    40  40 100 CALM      30.07S
$$

KYZ024-025-028>034-038-045-046-053-201100-
NORTH CENTRAL KENTUCKY

CITY           SKY/WX    TMP DP  RH WIND       PRES   REMARKS
LOUISVILLE/SDF CLOUDY    47  44  90 SE7       30.04F
LOUISVILLE/LOU CLOUDY    46  43  89 CALM      30.05S
FORT KNOX      MOCLDY    44  42  93 CALM      30.03F
$$

KYZ035>037-039>044-047>052-055>060-089>105-201100-
NORTHEAST KENTUCKY

CITY           SKY/WX    TMP DP  RH WIND       PRES   REMARKS
LEXINGTON      MOCLDY    47  41  80 S5        30.05S
COVINGTON      CLOUDY    46  42  86 S6        30.01F
FRANKFORT      CLOUDY    45  42  89 CALM      30.04F
$$

KYZ054-064>069-076>088-106>120-201100-
SOUTHEAST KENTUCKY

CITY           SKY/WX    TMP DP  RH WIND       PRES   REMARKS
JACKSON        PTCLDY    42  39  89 CALM      30.06S
LONDON         PTCLDY    42  39  89 CALM      30.07S
SOMERSET       MOCLDY    41  41 100 CALM      30.09R
MIDDLESBORO    CLOUDY    42  41  99 CALM      30.10R
MONTICELLO     SUNNY     40  39  96 CALM      30.09S FOG
$$



USA.gov is the U.S. government's official web portal to all federal, state and local government web resources and services.